Location: Amsterdam
(30.7274°N, 84.4357°W)
Time: 21:24:18
(UTC+00:00)

Injun/Solrad 3 - Pass Details

Date: 27 February 2026
Orbit: 872 x 984 km, 66.8° (Epoch: 6 March)

Event Time Altitude Azimuth Distance (km) Brightness Sun altitude
Rises 23:21:41 0° 343° (NNW) 3,604 11.1 2.0°
Reaches altitude 10° 23:24:22 10° 351° (N) 2,674 10.3 1.4°
Maximum altitude 23:30:14 41° 60° (ENE) 1,363 8.4 0.2°
Drops below altitude 10° 23:36:11 10° 130° (SE) 2,718 10.0 -1.1°
Sets 23:38:55 0° 137° (SE) 3,670 10.7 -1.7°
